QPF
0.00 0.00 0.00 0.00 0.00 0.00 0.00 0.00 0.00 0.00 0.00 0.00 0.00 0.00 0.00 0.00 0.00 0.00 0.00 0.00 0.00 0.00 0.00 0.00 0.00 0.00 0.00 0.00 0.00 0.00 0.00 0.00 0.00 0.00 0.00 0.00 0.00 0.00 0.00 0.00 0.00 0.00 0.00 0.00 0.00
0.00 0.00 0.00 0.00 0.00 0.00 0.00 0.00 0.00 0.00 0.00 0.00 0.00 0.00 0.00 0.00 0.00 0.00 0.00 0.00 0.00 0.00 0.00 0.00 0.00 0.00 0.00 0.00 0.00 0.00 0.00 0.00 0.00 0.00 0.00 0.00 0.00 0.00 0.00 0.00 0.00 0.00 0.00 0.00 0.00
0.00 0.00 0.00 0.00 0.00 0.00 0.00 0.00 0.00 0.00 0.00 0.00 0.00 0.00 0.00 0.00 0.00 0.00 0.00 0.00 0.00 0.00 0.00 0.00 0.00 0.00 0.00 0.00 0.00 0.00 0.00 0.00 0.00 0.00 0.00 0.00 0.00 0.00 0.00 0.00 0.00 0.00 0.00 0.00 0.00
0.00 0.00 0.00 0.00 0.00 0.00 0.00 0.00 0.00 0.00 0.00 0.00 0.00 0.00 0.00 0.00 0.00 0.00 0.00 0.00 0.00 0.00 0.00 0.00 0.00 0.00 0.00 0.00 0.00 0.00 0.00 0.00 0.00 0.00 0.00 0.00 0.00 0.00 0.00 0.00 0.00 0.00 0.00 0.00 0.00
0.00 0.00 0.00 0.00 0.00 0.00 0.00 0.00 0.00 0.00 0.00 0.00 0.00 0.00 0.00 0.00 0.00 0.00 0.00 0.00 0.00 0.00 0.00 0.00 0.00 0.00 0.00 0.00 0.00 0.00 0.00 0.00 0.00 0.00 0.00 0.00 0.00 0.00 0.00 0.00 0.00 0.00 0.00 0.00 0.00
0.00 0.00 0.00 0.00 0.00 0.00 0.00 0.00 0.00 0.00 0.00 0.00 0.00 0.00 0.00 0.00 0.00 0.00 0.00 0.00 0.00 0.00 0.00 0.00 0.00 0.00 0.00 0.00 0.00 0.00 0.00 0.00 0.00 0.00 0.00 0.00 0.00 0.00 0.00 0.00 0.00 0.00 0.00 0.00 0.00
0.00 0.00 0.00 0.00 0.00 0.00 0.00 0.00 0.00 0.00 0.00 0.00 0.00 0.00 0.00 0.00 0.00 0.00 0.00 0.00 0.00 0.00 0.00 0.00 0.00 0.00 0.00 0.00 0.00 0.00 0.00 0.00 0.00 0.00 0.00 0.00 0.00 0.00 0.00 0.00 0.00 0.00 0.00 0.00 0.00
0.00 0.00 0.00 0.00 0.00 0.00 0.00 0.00 0.00 0.00 0.00 0.00 0.00 0.00 0.00 0.00 0.00 0.00 0.00 0.00 0.00 0.00 0.00 0.00 0.00 0.00 0.00 0.00 0.00 0.00 0.00 0.00 0.00 0.00 0.00 0.00 0.00 0.00 0.00 0.00 0.00 0.00 0.00 0.00 0.00
0.00 0.00 0.00 0.00 0.00 0.00 0.00 0.00 0.00 0.00 0.00 0.00 0.00 0.00 0.00 0.00 0.00 0.00 0.00 0.00 0.00 0.00 0.00 0.00 0.00 0.00 0.00 0.00 0.00 0.00 0.00 0.00 0.00 0.00 0.00 0.00 0.00 0.00 0.00 0.00 0.00 0.00 0.00 0.00 0.00
0.00 0.00 0.00 0.00 0.00 0.00 0.00 0.00 0.00 0.00 0.00 0.00 0.00 0.00 0.00 0.00 0.00 0.00 0.00 0.00 0.00 0.00 0.00 0.00 0.00 0.00 0.00 0.00 0.00 0.00 0.00 0.00 0.00 0.00 0.00 0.00 0.00 0.00 0.00 0.00 0.00 0.00 0.00 0.00 0.00
0.00 0.00 0.00 0.00 0.00 0.00 0.00 0.00 0.00 0.00 0.00 0.00 0.00 0.00 0.00 0.00 0.00 0.00 0.00 0.00 0.00 0.00 0.00 0.00 0.00 0.00 0.00 0.00 0.00 0.00 0.00 0.00 0.00 0.00 0.00 0.00 0.00 0.00 0.00 0.00 0.00 0.00 0.00 0.00 0.00
0.00 0.00 0.00 0.00 0.00 0.00 0.00 0.00 0.00 0.00 0.00 0.00 0.00 0.00 0.00 0.00 0.00 0.00 0.00 0.00 0.00 0.00 0.00 0.00 0.00 0.00 0.00 0.00 0.00 0.00 0.00 0.00 0.00 0.00 0.00 0.00 0.00 0.00 0.00 0.00 0.00 0.00 0.00 0.00 0.00
0.00 0.00 0.00 0.00 0.00 0.00 0.00 0.00 0.00 0.00 0.00 0.00 0.00 0.00 0.00 0.00 0.00 0.00 0.00 0.00 0.00 0.00 0.00 0.00 0.00 0.00 0.00 0.00 0.00 0.00 0.00 0.00 0.00 0.00 0.00 0.00 0.00 0.00 0.00 0.00 0.00 0.00 0.00 0.00 0.00
0.00 0.00 0.00 0.00 0.00 0.00 0.00 0.00 0.00 0.00 0.00 0.00 0.00 0.00 0.00 0.00 0.00 0.00 0.00 0.00 0.00 0.00 0.00 0.00 0.00 0.00 0.00 0.00 0.00 0.00 0.00 0.00 0.00 0.00 0.00 0.00 0.00 0.00 0.00 0.00 0.00 0.00 0.00 0.00 0.00
0.00 0.00 0.00 0.00 0.00 0.00 0.00 0.00 0.00 0.00 0.00 0.00 0.00 0.00 0.00 0.00 0.00 0.00 0.00 0.00 0.00 0.00 0.00 0.00 0.00 0.00 0.00 0.00 0.00 0.00 0.00 0.00 0.00 0.00 0.00 0.00 0.00 0.00 0.00 0.00 0.00 0.00 0.00 0.00 0.00
0.00 0.00 0.00 0.00 0.00 0.00 0.00 0.00 0.00 0.00 0.00 0.00 0.00 0.00 0.00 0.00 0.00 0.00 0.00 0.00 0.00 0.00 0.00 0.00 0.00 0.00 0.00 0.00 0.00 0.00 0.00 0.00 0.00 0.00 0.00 0.00 0.00 0.00 0.00 0.00 0.00 0.00 0.00 0.00 0.00
0.00 0.00 0.00 0.00 0.00 0.00 0.00 0.00 0.00 0.00 0.00 0.00 0.00 0.00 0.00 0.00 0.00 0.00 0.00 0.00 0.00 0.00 0.00 0.00 0.00 0.00 0.00 0.00 0.00 0.00 0.00 0.00 0.00 0.00 0.00 0.00 0.00 0.00 0.00 0.00 0.00 0.00 0.00 0.00 0.00
0.00 0.00 0.00 0.00 0.00 0.00 0.00 0.00 0.00 0.00 0.00 0.00 0.00 0.00 0.00 0.00 0.00 0.00 0.00 0.00 0.00 0.00 0.00 0.00 0.00 0.00 0.00 0.00 0.00 0.00 0.00 0.00 0.00 0.00 0.00 0.00 0.00 0.00 0.00 0.00 0.00 0.00 0.00 0.00 0.00
0.00 0.00 0.00 0.00 0.00 0.00 0.00 0.00 0.00 0.00 0.00 0.00 0.00 0.00 0.00 0.00 0.00 0.00 0.00 0.00 0.00 0.00 0.00 0.00 0.00 0.00 0.00 0.00 0.00 0.00 0.00 0.00 0.00 0.00 0.00 0.00 0.00 0.00 0.00 0.00 0.00 0.00 0.00 0.00 0.00
0.00 0.00 0.00 0.00 0.00 0.00 0.00 0.00 0.00 0.00 0.00 0.00 0.00 0.00 0.00 0.00 0.00 0.00 0.00 0.00 0.00 0.00 0.00 0.00 0.00 0.00 0.00 0.00 0.00 0.00 0.00 0.00 0.00 0.00 0.00 0.00 0.00 0.00 0.00 0.00 0.00 0.00 0.00 0.00 0.00
0.00 0.00 0.00 0.00 0.00 0.00 0.00 0.00 0.00 0.00 0.00 0.00 0.00 0.00 0.00 0.00 0.00 0.00 0.00 0.00 0.00 0.00 0.00 0.00 0.00 0.00 0.00 0.00 0.00 0.00 0.00 0.00 0.00 0.00 0.00 0.00 0.00 0.00 0.00 0.00 0.00 0.00 0.00 0.00 0.00
0.00 0.00 0.00 0.00 0.00 0.00 0.00 0.00 0.00 0.00 0.00 0.00 0.00 0.00 0.00 0.00 0.00 0.00 0.00 0.00 0.00 0.00 0.00 0.00 0.00 0.00 0.00 0.00 0.00 0.00 0.00 0.00 0.00 0.00 0.00 0.00 0.00 0.00 0.00 0.00 0.00 0.00 0.00 0.00 0.00
0.00 0.00 0.00 0.00 0.00 0.00 0.00 0.00 0.00 0.00 0.00 0.00 0.00 0.00 0.00 0.00 0.00 0.00 0.00 0.00 0.00 0.00 0.00 0.00 0.00 0.00 0.00 0.00 0.00 0.00 0.00 0.00 0.00 0.00 0.00 0.00 0.00 0.00 0.00 0.00 0.00 0.00 0.00 0.00 0.00
0.00 0.00 0.00 0.00 0.00 0.00 0.00 0.00 0.00 0.00 0.00 0.00 0.00 0.00 0.00 0.00 0.00 0.00 0.00 0.00 0.00 0.00 0.00 0.00 0.00 0.00 0.00 0.00 0.00 0.00 0.00 0.00 0.00 0.00 0.00 0.00 0.00 0.00 0.00 0.00 0.00 0.00 0.00 0.00 0.00
0.00 0.00 0.00 0.00 0.00 0.00 0.00 0.00 0.00 0.00 0.00 0.00 0.00 0.00 0.00 0.00 0.00 0.00 0.00 0.00 0.00 0.00 0.00 0.00 0.00 0.00 0.00 0.00 0.00 0.00 0.00 0.00 0.00 0.00 0.00 0.00 0.00 0.00 0.00 0.00 0.00 0.00 0.00 0.00 0.00
0.00 0.00 0.00 0.00 0.00 0.00 0.00 0.00 0.00 0.00 0.00 0.00 0.00 0.00 0.00 0.00 0.00 0.00 0.00 0.00 0.00 0.00 0.00 0.00 0.00 0.00 0.00 0.00 0.00 0.00 0.00 0.00 0.00 0.00 0.00 0.00 0.00 0.00 0.00 0.00 0.00 0.00 0.00 0.00 0.00
0.00 0.00 0.00 0.00 0.00 0.00 0.00 0.00 0.00 0.00 0.00 0.00 0.00 0.00 0.00 0.00 0.00 0.00 0.00 0.00 0.00 0.00 0.00 0.00 0.00 0.00 0.00 0.00 0.00 0.00 0.00 0.00 0.00 0.00 0.00 0.00 0.00 0.00 0.00 0.00 0.00 0.00 0.00 0.00 0.00
MSLP
1019.97 1019.58 1019.27 1018.80 1018.40 1017.89 1017.37 1016.93 1016.57 1016.30 1015.73 1015.29 1014.98 1014.77 1014.52 1014.21 1013.73 1013.50 1011.80 1010.10 1010.02 1010.05 1010.33 1010.49 1010.39 1010.54 1010.68 1010.32 1010.29 1010.08 1009.11 1008.64 1008.66 1008.57 1008.60 1009.33 1009.43 1010.38 1010.72 1011.02 1011.67 1012.25 1012.56 1012.97 1014.38
1020.04 1019.72 1019.18 1018.70 1018.31 1017.76 1017.22 1016.70 1016.34 1016.03 1015.45 1015.05 1014.80 1014.60 1014.37 1014.17 1013.61 1011.96 1009.87 1009.88 1009.99 1010.05 1009.97 1009.89 1010.06 1010.26 1010.20 1010.13 1009.99 1009.39 1008.98 1008.67 1008.75 1008.81 1008.74 1009.27 1009.55 1010.05 1010.53 1011.13 1011.78 1012.40 1013.02 1013.83 1014.81
1020.08 1019.73 1019.07 1018.74 1018.10 1017.79 1017.17 1016.56 1016.14 1015.68 1015.07 1014.85 1014.56 1014.30 1014.28 1014.14 1013.04 1010.07 1009.44 1009.76 1010.02 1009.97 1009.80 1009.73 1009.85 1009.94 1009.84 1009.89 1009.86 1009.52 1008.88 1008.97 1008.64 1009.02 1009.21 1009.37 1009.82 1010.17 1010.22 1010.72 1011.15 1011.85 1013.05 1014.00 1014.66
1020.14 1019.48 1019.12 1018.64 1018.04 1017.61 1017.03 1016.49 1015.83 1015.27 1014.60 1014.60 1014.34 1014.11 1014.17 1013.82 1011.77 1009.50 1009.41 1009.68 1009.95 1009.85 1009.72 1009.61 1009.61 1009.70 1009.57 1009.48 1009.65 1009.41 1009.31 1009.14 1008.71 1009.18 1009.40 1009.40 1009.84 1009.95 1010.10 1010.51 1011.11 1011.80 1012.92 1013.70 1014.50
1020.11 1019.47 1018.95 1018.48 1018.06 1017.40 1016.83 1016.19 1015.57 1014.90 1014.45 1014.36 1014.14 1013.95 1013.79 1012.70 1010.25 1009.47 1009.55 1009.78 1010.03 1009.89 1009.45 1009.28 1009.26 1009.45 1009.26 1009.39 1009.51 1009.40 1009.45 1009.21 1008.97 1009.22 1009.46 1009.65 1009.72 1009.81 1009.84 1010.46 1011.29 1012.01 1013.05 1013.68 1014.38
1019.94 1019.42 1018.93 1018.39 1017.75 1016.98 1016.29 1015.72 1015.03 1014.51 1014.15 1014.06 1013.95 1013.81 1013.39 1011.37 1009.48 1009.48 1009.72 1009.94 1009.79 1009.53 1009.40 1009.24 1009.12 1009.26 1009.22 1009.31 1009.32 1009.41 1009.59 1009.18 1009.16 1009.41 1009.66 1009.64 1010.04 1010.28 1010.25 1010.97 1011.68 1012.33 1012.96 1013.74 1014.26
1019.90 1019.31 1018.61 1017.86 1017.18 1016.37 1015.68 1015.13 1014.39 1013.91 1013.72 1013.68 1013.71 1013.40 1012.68 1010.22 1009.38 1009.52 1009.79 1009.59 1009.62 1009.35 1009.19 1009.27 1009.20 1009.17 1009.20 1009.15 1009.46 1009.35 1009.22 1009.07 1009.25 1009.56 1009.69 1009.71 1010.21 1010.33 1010.99 1011.30 1012.06 1012.76 1013.29 1013.78 1014.26
1019.83 1019.27 1018.57 1017.78 1016.98 1015.89 1015.24 1014.53 1013.89 1013.26 1012.96 1013.48 1013.43 1012.94 1011.15 1009.42 1009.48 1009.61 1009.63 1009.52 1009.58 1009.45 1009.24 1009.24 1009.28 1009.24 1009.37 1009.46 1009.33 1009.11 1009.27 1008.79 1009.27 1009.58 1010.07 1010.14 1009.84 1010.67 1011.34 1011.57 1012.11 1012.78 1013.50 1013.79 1014.19
1019.68 1019.12 1018.47 1017.70 1016.65 1015.57 1014.83 1014.31 1013.60 1013.49 1012.93 1013.52 1012.94 1012.54 1010.25 1009.77 1009.38 1008.93 1009.08 1008.85 1009.18 1009.34 1009.32 1009.35 1009.41 1009.54 1009.54 1009.13 1009.08 1009.14 1008.69 1008.67 1009.31 1009.72 1009.76 1010.06 1010.08 1011.12 1011.58 1011.87 1012.03 1012.62 1013.24 1013.60 1014.03
1019.63 1019.01 1018.20 1017.31 1016.40 1015.47 1014.66 1014.01 1013.65 1013.44 1013.35 1013.25 1012.46 1012.29 1009.82 1009.12 1008.53 1008.65 1008.89 1008.69 1008.63 1008.99 1009.18 1009.24 1009.35 1009.39 1009.49 1009.12 1008.54 1008.66 1008.46 1008.73 1008.96 1009.80 1009.88 1010.19 1010.79 1011.30 1011.74 1012.06 1012.07 1012.20 1012.63 1013.11 1013.53
1019.61 1018.94 1018.07 1017.14 1016.11 1015.23 1014.25 1013.67 1013.69 1013.33 1012.70 1011.81 1011.02 1010.62 1009.68 1008.67 1008.34 1008.35 1008.51 1008.54 1008.52 1008.74 1008.80 1009.19 1008.96 1008.61 1008.59 1008.83 1008.76 1008.70 1008.61 1008.86 1009.50 1009.98 1010.10 1010.64 1011.13 1011.50 1011.85 1012.07 1012.06 1011.99 1012.14 1012.36 1012.79
1019.41 1018.83 1018.10 1016.94 1015.73 1015.02 1014.79 1013.92 1014.51 1014.82 1013.00 1010.78 1010.38 1009.76 1009.25 1008.95 1008.30 1008.01 1008.25 1008.22 1008.35 1008.53 1008.95 1009.12 1008.56 1008.53 1008.69 1008.79 1008.73 1008.73 1008.78 1009.31 1009.96 1010.23 1010.17 1011.05 1011.32 1011.75 1011.94 1011.93 1011.91 1011.86 1011.80 1012.23 1012.54
1019.39 1018.55 1017.88 1016.72 1015.60 1015.03 1014.95 1014.26 1014.35 1014.35 1013.39 1010.21 1009.29 1008.46 1008.23 1008.43 1007.86 1007.61 1007.80 1007.85 1008.03 1008.38 1008.45 1008.26 1008.14 1008.36 1008.33 1008.43 1008.49 1008.59 1008.35 1008.95 1009.04 1010.16 1010.64 1010.88 1011.01 1011.36 1011.75 1011.73 1011.66 1011.72 1011.72 1011.97 1012.36
1019.23 1018.85 1018.11 1017.04 1015.52 1015.95 1014.49 1014.04 1014.25 1014.08 1012.60 1009.81 1008.31 1007.22 1007.66 1007.59 1007.52 1007.20 1007.25 1007.44 1007.84 1007.85 1008.24 1008.11 1007.92 1007.79 1007.84 1007.59 1007.52 1007.71 1008.10 1008.63 1008.97 1009.40 1010.14 1011.04 1010.50 1010.90 1011.08 1011.06 1011.36 1011.24 1011.08 1011.41 1012.05
1018.93 1018.52 1018.23 1017.87 1017.05 1016.08 1014.46 1014.22 1014.01 1013.87 1011.56 1008.83 1007.53 1006.83 1007.24 1007.17 1007.01 1007.31 1007.19 1007.28 1007.40 1007.53 1007.87 1007.42 1007.34 1007.24 1006.97 1006.58 1006.83 1007.90 1008.14 1008.56 1009.01 1009.59 1010.21 1011.02 1011.09 1010.15 1011.01 1010.55 1010.73 1010.60 1010.78 1010.96 1011.49
1018.69 1018.11 1017.87 1017.54 1017.20 1015.21 1014.41 1014.17 1013.38 1012.74 1010.42 1008.16 1007.27 1006.93 1007.14 1006.87 1006.84 1007.17 1007.08 1007.19 1007.47 1007.54 1007.45 1007.04 1007.06 1006.68 1006.20 1006.64 1006.77 1007.85 1008.30 1008.97 1009.42 1009.69 1010.02 1010.56 1010.71 1009.54 1010.18 1009.90 1010.07 1010.18 1010.48 1010.83 1011.27
1018.35 1017.74 1017.98 1017.13 1015.67 1015.14 1014.46 1013.42 1012.88 1011.72 1009.67 1008.62 1007.77 1007.35 1007.03 1006.71 1006.88 1006.86 1007.02 1007.18 1007.18 1007.47 1007.00 1006.64 1006.31 1006.12 1005.98 1006.36 1007.28 1007.41 1007.82 1008.58 1009.00 1009.28 1009.73 1010.80 1010.58 1009.44 1009.53 1009.60 1009.91 1009.69 1010.29 1010.77 1011.35
1017.98 1017.18 1016.79 1015.96 1015.34 1015.23 1014.51 1013.28 1012.38 1010.80 1009.72 1008.76 1008.06 1007.47 1007.16 1006.68 1006.74 1006.88 1007.05 1007.11 1007.36 1007.18 1006.86 1006.16 1006.18 1005.82 1005.69 1005.94 1006.46 1007.51 1007.66 1008.01 1008.68 1009.40 1009.62 1010.65 1009.89 1009.46 1009.56 1009.58 1009.67 1009.89 1010.33 1010.74 1011.03
1017.51 1016.40 1015.93 1014.97 1015.18 1015.44 1014.43 1012.80 1011.54 1010.54 1009.94 1009.11 1007.89 1007.36 1007.02 1006.70 1006.56 1006.69 1006.90 1006.92 1006.83 1006.85 1006.65 1006.26 1006.03 1005.93 1005.94 1006.16 1006.65 1007.76 1008.10 1008.97 1009.29 1010.45 1009.75 1009.93 1009.57 1009.45 1009.41 1009.52 1009.79 1010.01 1010.31 1010.44 1010.65
1018.07 1016.85 1015.29 1014.63 1014.84 1014.60 1013.64 1012.32 1011.10 1010.32 1009.89 1009.30 1008.66 1007.94 1007.17 1006.77 1006.69 1006.56 1006.72 1006.49 1006.39 1006.42 1006.45 1006.52 1006.30 1006.27 1006.53 1006.53 1007.34 1007.32 1008.52 1009.13 1009.34 1009.79 1009.75 1009.89 1009.62 1009.06 1009.40 1009.47 1009.65 1009.71 1009.60 1009.93 1010.22
1018.06 1016.60 1014.80 1014.73 1014.81 1013.94 1012.87 1011.85 1010.96 1010.14 1009.90 1009.51 1008.97 1008.38 1007.49 1006.91 1006.61 1006.49 1006.43 1006.22 1006.06 1006.42 1006.60 1006.69 1006.72 1006.84 1006.73 1006.88 1007.14 1008.15 1008.51 1009.49 1010.02 1010.27 1009.75 1009.70 1009.41 1009.58 1009.80 1009.88 1009.59 1009.48 1009.48 1009.64 1009.76
1018.14 1016.45 1014.61 1014.44 1014.21 1013.67 1012.32 1011.53 1010.81 1010.13 1009.75 1009.43 1009.10 1008.62 1007.94 1007.21 1006.72 1006.64 1006.34 1006.09 1006.04 1006.09 1006.67 1007.02 1007.19 1007.05 1007.30 1007.58 1007.62 1007.71 1008.32 1008.95 1009.37 1010.77 1010.75 1010.19 1009.65 1009.76 1009.97 1010.15 1010.26 1009.96 1009.78 1009.63 1009.72
1018.29 1016.75 1014.85 1014.48 1013.90 1013.24 1012.31 1011.42 1010.77 1010.29 1009.83 1009.45 1008.88 1008.60 1008.06 1007.38 1007.13 1006.63 1006.34 1006.22 1006.31 1006.34 1006.30 1006.97 1007.42 1007.61 1007.83 1008.14 1008.04 1008.09 1008.71 1009.21 1009.66 1010.25 1010.32 1009.97 1009.84 1010.10 1010.20 1010.03 1010.26 1010.26 1010.43 1010.46 1010.37
1018.67 1017.09 1015.26 1014.65 1014.37 1013.52 1012.54 1011.57 1010.97 1010.23 1010.03 1009.62 1008.92 1008.68 1008.29 1007.66 1007.43 1006.86 1006.60 1006.61 1006.66 1006.74 1006.71 1006.66 1007.70 1007.23 1007.33 1007.40 1007.69 1008.29 1008.81 1009.32 1009.18 1009.69 1010.27 1010.10 1010.12 1010.26 1010.64 1010.85 1010.92 1011.02 1010.99 1010.81 1010.92
1018.82 1017.84 1017.34 1015.68 1014.82 1014.12 1013.46 1012.43 1011.56 1011.03 1010.39 1009.84 1009.14 1009.17 1008.84 1008.17 1007.61 1007.18 1007.08 1007.00 1007.11 1007.38 1007.45 1007.37 1007.81 1008.15 1008.23 1007.97 1007.95 1008.22 1008.70 1009.15 1009.16 1009.52 1009.60 1010.30 1010.45 1010.56 1011.31 1011.77 1012.07 1012.23 1011.94 1011.67 1011.71
1018.99 1018.38 1017.72 1016.42 1015.72 1014.67 1013.83 1013.00 1012.38 1011.74 1011.24 1010.10 1009.89 1009.74 1009.30 1008.80 1008.14 1007.69 1007.58 1007.54 1007.59 1007.79 1008.03 1008.31 1008.44 1008.58 1008.95 1008.68 1008.39 1008.62 1008.90 1009.01 1009.29 1009.76 1009.97 1010.45 1010.83 1011.46 1012.02 1012.42 1012.65 1012.82 1012.66 1012.56 1012.73
1019.44 1019.18 1018.34 1016.84 1015.74 1014.84 1014.09 1013.65 1012.86 1012.32 1011.26 1011.00 1010.66 1010.35 1009.56 1009.34 1009.22 1008.67 1008.37 1008.14 1008.13 1008.08 1008.38 1008.69 1008.86 1009.12 1009.48 1009.49 1009.20 1009.49 1009.31 1009.36 1009.53 1009.80 1009.91 1010.54 1011.37 1012.02 1012.40 1012.76 1013.14 1013.12 1013.20 1013.38 1013.58
Thickness
5695 5701 5705 5711 5717 5725 5731 5738 5744 5750 5757 5762 5766 5769 5773 5776 5780 5783 5793 5808 5809 5809 5807 5803 5802 5798 5796 5792 5793 5792 5781 5772 5775 5777 5786 5793 5792 5791 5790 5780 5777 5776 5771 5773 5763
5689 5694 5701 5707 5713 5720 5727 5734 5740 5747 5755 5761 5764 5767 5772 5774 5780 5788 5809 5809 5808 5808 5805 5800 5792 5793 5788 5786 5787 5787 5777 5777 5789 5790 5789 5792 5792 5789 5782 5774 5770 5769 5771 5767 5757
5682 5687 5697 5701 5709 5714 5722 5729 5736 5744 5753 5759 5763 5766 5769 5772 5781 5801 5810 5808 5806 5807 5808 5805 5799 5792 5784 5786 5783 5779 5779 5783 5792 5791 5792 5790 5786 5789 5782 5773 5779 5771 5766 5762 5756
5675 5684 5690 5697 5705 5710 5717 5724 5733 5742 5752 5756 5761 5764 5766 5771 5774 5805 5808 5806 5804 5806 5805 5801 5795 5783 5781 5779 5785 5777 5781 5785 5795 5792 5789 5788 5790 5785 5786 5784 5788 5783 5774 5767 5757
5669 5677 5685 5692 5699 5707 5714 5722 5730 5739 5747 5752 5757 5761 5767 5775 5788 5804 5804 5802 5801 5802 5800 5798 5792 5785 5781 5782 5782 5779 5779 5785 5795 5792 5792 5793 5787 5788 5788 5793 5789 5783 5774 5766 5759
5664 5671 5678 5686 5695 5705 5713 5721 5730 5737 5743 5748 5753 5757 5764 5767 5799 5800 5799 5797 5799 5800 5798 5799 5794 5794 5786 5783 5780 5785 5779 5785 5790 5789 5789 5787 5781 5783 5790 5789 5781 5777 5772 5766 5760
5659 5666 5675 5685 5695 5704 5713 5722 5732 5739 5742 5745 5749 5754 5759 5776 5795 5796 5795 5796 5798 5799 5793 5798 5800 5793 5789 5782 5785 5782 5777 5783 5785 5785 5784 5791 5775 5777 5782 5784 5775 5770 5767 5764 5760
5656 5662 5670 5679 5690 5702 5711 5722 5731 5741 5743 5740 5745 5751 5757 5787 5790 5790 5793 5792 5795 5798 5798 5800 5800 5791 5785 5786 5780 5774 5773 5769 5782 5782 5779 5782 5771 5776 5778 5778 5772 5769 5762 5760 5757
5653 5659 5665 5674 5687 5698 5709 5717 5728 5732 5738 5734 5744 5745 5755 5780 5779 5791 5792 5788 5791 5793 5795 5798 5793 5780 5781 5773 5767 5766 5762 5768 5768 5780 5779 5778 5774 5771 5776 5774 5772 5769 5762 5759 5754
5648 5655 5663 5673 5682 5693 5705 5715 5722 5727 5730 5731 5740 5736 5763 5764 5780 5785 5789 5791 5787 5785 5782 5783 5779 5771 5765 5766 5752 5757 5763 5766 5766 5771 5777 5771 5764 5767 5772 5769 5770 5771 5767 5761 5757
5644 5650 5659 5669 5679 5690 5703 5713 5721 5724 5727 5734 5741 5741 5752 5770 5781 5777 5784 5782 5783 5775 5765 5770 5763 5760 5770 5768 5769 5767 5766 5762 5764 5772 5771 5758 5758 5761 5767 5767 5769 5770 5768 5767 5763
5640 5646 5653 5665 5677 5687 5694 5704 5700 5700 5706 5735 5738 5743 5754 5761 5755 5769 5782 5768 5765 5755 5761 5759 5751 5768 5771 5767 5764 5762 5759 5753 5760 5766 5770 5753 5754 5758 5763 5766 5769 5767 5768 5765 5764
5635 5644 5651 5662 5674 5682 5685 5694 5696 5698 5698 5729 5741 5746 5752 5757 5753 5761 5772 5767 5760 5753 5756 5755 5765 5770 5768 5762 5758 5758 5764 5755 5766 5761 5762 5759 5757 5757 5761 5765 5767 5769 5769 5767 5763
5631 5637 5644 5655 5670 5669 5686 5689 5689 5695 5696 5718 5734 5749 5751 5756 5748 5771 5776 5768 5758 5755 5753 5757 5770 5767 5763 5767 5775 5765 5775 5770 5763 5763 5748 5752 5742 5751 5762 5763 5762 5769 5773 5771 5765
5629 5634 5639 5643 5653 5663 5680 5681 5685 5689 5668 5723 5732 5760 5749 5748 5754 5754 5772 5766 5751 5755 5757 5759 5763 5763 5766 5778 5783 5763 5774 5769 5764 5752 5747 5737 5736 5766 5749 5757 5761 5771 5773 5774 5771
5625 5633 5637 5642 5646 5666 5673 5677 5685 5672 5660 5709 5730 5731 5731 5741 5746 5750 5757 5766 5764 5753 5757 5763 5775 5775 5780 5777 5782 5770 5763 5756 5752 5748 5732 5734 5737 5758 5750 5761 5764 5772 5774 5773 5772
5622 5631 5633 5640 5659 5661 5668 5676 5662 5649 5698 5697 5707 5720 5723 5727 5733 5740 5739 5739 5740 5729 5739 5758 5766 5777 5783 5769 5769 5767 5759 5730 5726 5728 5727 5729 5730 5753 5763 5770 5767 5772 5771 5771 5768
5620 5631 5638 5646 5654 5657 5663 5668 5643 5669 5682 5704 5708 5712 5710 5724 5728 5729 5729 5729 5740 5742 5738 5745 5739 5768 5781 5776 5766 5757 5760 5740 5707 5713 5731 5727 5727 5750 5763 5768 5770 5772 5770 5768 5767
5620 5632 5640 5649 5650 5651 5660 5649 5656 5666 5684 5690 5705 5703 5707 5719 5725 5727 5727 5730 5742 5747 5736 5740 5743 5770 5773 5775 5774 5748 5747 5747 5725 5710 5726 5728 5743 5756 5763 5762 5762 5764 5762 5763 5766
5609 5621 5638 5645 5647 5652 5656 5647 5662 5678 5682 5690 5682 5697 5697 5710 5715 5721 5719 5739 5742 5751 5757 5744 5735 5759 5760 5772 5762 5763 5752 5733 5733 5704 5702 5716 5721 5739 5748 5755 5758 5760 5764 5764 5765
5604 5620 5636 5639 5642 5649 5646 5652 5664 5680 5682 5681 5684 5687 5700 5706 5716 5716 5724 5739 5747 5745 5752 5748 5743 5742 5756 5751 5749 5744 5742 5726 5727 5717 5712 5705 5720 5745 5742 5748 5756 5761 5764 5764 5764
5594 5613 5631 5636 5638 5636 5648 5655 5665 5673 5682 5685 5688 5691 5695 5705 5709 5712 5719 5731 5747 5750 5738 5747 5737 5730 5735 5748 5754 5753 5742 5738 5730 5701 5700 5710 5721 5744 5744 5745 5744 5749 5755 5761 5760
5587 5600 5622 5628 5628 5636 5646 5656 5666 5668 5673 5679 5685 5693 5701 5704 5702 5715 5721 5737 5742 5743 5742 5740 5725 5714 5719 5734 5744 5740 5733 5728 5722 5717 5705 5711 5717 5738 5741 5745 5745 5743 5745 5746 5746
5577 5597 5614 5619 5620 5630 5638 5649 5653 5671 5670 5676 5686 5694 5695 5701 5707 5712 5720 5731 5737 5739 5734 5743 5719 5732 5723 5733 5744 5729 5726 5725 5732 5719 5704 5713 5718 5730 5731 5729 5733 5733 5735 5738 5735
5566 5580 5584 5606 5613 5618 5625 5637 5645 5649 5668 5676 5679 5682 5686 5691 5703 5708 5717 5725 5731 5725 5730 5737 5722 5721 5720 5730 5734 5732 5726 5722 5725 5721 5716 5711 5711 5724 5720 5716 5716 5717 5722 5724 5722
5562 5570 5578 5592 5595 5608 5615 5628 5635 5644 5652 5667 5668 5676 5681 5685 5699 5704 5714 5718 5721 5726 5723 5722 5711 5719 5710 5721 5729 5721 5723 5724 5722 5712 5713 5710 5708 5713 5710 5710 5707 5704 5708 5707 5705
5543 5548 5565 5579 5594 5605 5613 5618 5631 5637 5654 5658 5663 5666 5677 5684 5692 5702 5711 5715 5717 5722 5716 5716 5711 5711 5702 5707 5714 5702 5713 5715 5713 5715 5717 5701 5705 5702 5698 5698 5695 5694 5694 5691 5689